Tracking 22458 objects as of 4-Mar-2021
HD Live streaming from Space Station
objects crossing your sky now

SL-16 DEB

Track SL-16 DEB now!
10-day predictions


NORAD ID: 16391
Int'l Code: 1985-097E
Perigee: 844.8 km
Apogee: 1,121.4 km
Inclination: 71.0 °
Period: 104.6 minutes
Semi major axis: 7354 km
RCS: 0.086 m2 (small)
Launch date: October 22, 1985
Source: Commonwealth of Independent States (former USSR) (CIS)
Launch site: TYURATAM MISSILE AND SPACE COMPLEX (TTMTR)

Note: This is SATELLITE DEBRIS
aabbcc
Your satellite tracking list
Your tracking list is empty




NASA's NSSDC Master Catalog

Two Line Element Set (TLE):
1 16391U 85097E   21062.69631505  .00000033  00000-0  67161-4 0  9996
2 16391  70.9983 343.4592 0188070  75.3234   4.2235 13.76603047775952
Source of the keplerian elements: AFSPC